Guernsey, United Kingdom

9:41 AM GMT on February 14, 2016 (GMT +0000)
Guernsey

Weather History for EGJB - September, 2013

Change the Weather History Date:

Sunday, September 22, 2013

  Actual Average Record
Temperature  
Mean Temperature 64 °F -  
Max Temperature 68 °F 59 °F 69 °F (1997)
Min Temperature 60 °F 52 °F 51 °F (2001)
Degree Days  
Heating Degree Days 1    
Growing Degree Days 14 (Base 50)    
Moisture  
Dew Point 61 °F    
Average Humidity 94    
Maximum Humidity 100    
Minimum Humidity 74    
Precipitation  
Precipitation 0.00 in - - ()
Sea Level Pressure  
Sea Level Pressure 30.36 in    
Wind  
Wind Speed 3 mph ()    
Max Wind Speed 12 mph    
Max Gust Speed -    
Visibility 4.4 miles    
Events Fog    
Averages and records for this station are not official NWS values.
T = Trace of Precipitation, MM = Missing Value Source: Averaged Metar Reports

Daily Weather History Graph

Daily Weather History Graph

Search for Another Location

Airport or City:

Trip Planner

Search our weather history database for the weather conditions in past years. The results will help you decide how hot, cold, wet, or windy it might be!

Date:

Astronomy

Sep. 22, 2013 Rise Set
Actual Time 6:56 AM BST 7:08 PM BST
Civil Twilight 6:25 AM BST 7:40 PM BST
Nautical Twilight 5:47 AM BST 8:17 PM BST
Astronomical Twilight 5:08 AM BST 8:56 PM BST
Moon 8:26 PM BST (9/22) 10:22 AM BST (9/22)
Length of Visible Light 13h 15m
Length of Day
12h 11m
Waning Gibbous, 90% of the Moon is Illuminated
Sep 22
Waning Gibbous
Sep 27
Last Quarter
Oct 5
New
Oct 12
First Quarter
Oct 19
Full

Hourly Weather History & Observations

Time (BST) Temp. Dew Point Humidity Pressure Visibility Wind Dir Wind Speed Gust Speed Precip Events Conditions
1:00 AM 60 °F 60 °F 100% 30.37 in 0 mi SW 2.3 mph - - Fog Partial Fog
3:50 AM 60.8 °F 60.8 °F 100% 30.36 in 0.2 mi SW 3.5 mph - N/A Fog Light Drizzle
4:20 AM 60.8 °F 60.8 °F 100% 30.36 in 3.7 mi West 3.5 mph - N/A Fog Mostly Cloudy
4:50 AM 60.8 °F 60.8 °F 100% 30.36 in 2.2 mi Calm Calm - N/A   Light Drizzle
5:20 AM 60.8 °F 60.8 °F 100% 30.36 in 2.5 mi SW 2.3 mph - N/A   Light Drizzle
5:50 AM 60.8 °F 60.8 °F 100% 30.36 in 2.2 mi SW 2.3 mph - N/A   Mostly Cloudy
6:20 AM 60.8 °F 60.8 °F 100% 30.36 in 0.4 mi Calm Calm - N/A Fog Fog
6:50 AM 60.8 °F 60.8 °F 100% 30.36 in 0.4 mi Calm Calm - N/A Fog Fog
7:00 AM 61 °F 61 °F 99% 30.38 in 0 mi Calm Calm - - Fog Partial Fog
7:20 AM 60.8 °F 60.8 °F 100% 30.39 in 0.9 mi Calm Calm - N/A Fog Fog
7:50 AM 60.8 °F 60.8 °F 100% 30.39 in 6.2 mi Calm Calm - N/A Fog Mostly Cloudy
8:20 AM 60.8 °F 60.8 °F 100% 30.39 in 6.2 mi North 2.3 mph - N/A Fog Mostly Cloudy
8:50 AM 62.6 °F 62.6 °F 100% 30.39 in 3.1 mi Variable 2.3 mph - N/A Fog Mostly Cloudy
9:20 AM 62.6 °F 60.8 °F 94% 30.39 in 1.6 mi SSE 3.5 mph - N/A Fog Mostly Cloudy
9:50 AM 62.6 °F 60.8 °F 94% 30.39 in 0.6 mi Variable 2.3 mph - N/A Fog Patches of Fog
10:00 AM 62 °F 62 °F 98% 30.40 in 0 mi SSE 2.3 mph - - Fog Patches of Fog
10:20 AM 62.6 °F 60.8 °F 94% 30.39 in 0.3 mi SSE 3.5 mph - N/A Fog Patches of Fog
10:50 AM 62.6 °F 62.6 °F 100% 30.39 in 0.7 mi SE 3.5 mph - N/A Fog Patches of Fog
11:20 AM 62.6 °F 60.8 °F 94% 30.39 in 2.5 mi SE 4.6 mph - N/A Fog Mostly Cloudy
11:50 AM 62.6 °F 62.6 °F 100% 30.39 in 5.0 mi SE 5.8 mph - N/A Fog Mostly Cloudy
12:20 PM 62.6 °F 62.6 °F 100% 30.39 in 6.2 mi SE 5.8 mph - N/A   Mostly Cloudy
12:50 PM 64.4 °F 62.6 °F 94% 30.39 in 6.2 mi SE 5.8 mph - N/A Fog Mostly Cloudy
1:00 PM 64 °F 63 °F 94% 30.40 in 2 mi SE 5.8 mph - - Fog Light Fog
1:20 PM 64.4 °F 62.6 °F 94% 30.39 in 6.2 mi SE 4.6 mph - N/A   Mostly Cloudy
1:50 PM 66.2 °F 64.4 °F 94% 30.36 in 6.2 mi SE 4.6 mph - N/A   Scattered Clouds
2:20 PM 66.2 °F 62.6 °F 88% 30.36 in 6.2 mi SE 5.8 mph - N/A   Scattered Clouds
2:50 PM 68.0 °F 62.6 °F 83% 30.36 in 6.2 mi SE 4.6 mph - N/A   Partly Cloudy
3:20 PM 68.0 °F 62.6 °F 83% 30.36 in 6.2 mi SE 5.8 mph - N/A   Partly Cloudy
3:50 PM 68.0 °F 60.8 °F 78% 30.36 in 6.2 mi ESE 4.6 mph - N/A   Partly Cloudy
4:00 PM 68 °F 62 °F 74% 30.36 in 19 mi ESE 4.6 mph - -   Scattered Clouds
4:20 PM 68.0 °F 62.6 °F 83% 30.36 in 6.2 mi Variable 3.5 mph - N/A   Partly Cloudy
4:50 PM 68.0 °F 60.8 °F 78% 30.33 in 6.2 mi ENE 5.8 mph - N/A   Partly Cloudy
5:20 PM 68.0 °F 62.6 °F 83% 30.33 in 6.2 mi ENE 5.8 mph - N/A   Partly Cloudy
5:50 PM 66.2 °F 60.8 °F 83% 30.33 in 6.2 mi ENE 6.9 mph - N/A   Partly Cloudy
6:20 PM 64.4 °F 60.8 °F 88% 30.33 in 6.2 mi NE 6.9 mph - N/A   Partly Cloudy
6:50 PM 62.6 °F 60.8 °F 94% 30.33 in 6.2 mi NE 9.2 mph - N/A Fog Partly Cloudy
7:00 PM 62 °F 60 °F 91% 30.34 in 4 mi NE 9.2 mph - -  
7:20 PM 60.8 °F 60.8 °F 100% 30.33 in 6.2 mi NE 8.1 mph - N/A Fog Unknown
7:50 PM 60.8 °F 60.8 °F 100% 30.33 in 6.2 mi NE 9.2 mph - N/A   Scattered Clouds
8:20 PM 60.8 °F 60.8 °F 100% 30.33 in 6.2 mi ENE 8.1 mph - N/A   Partly Cloudy
8:50 PM 60.8 °F 60.8 °F 100% 30.33 in 6.2 mi ENE 8.1 mph - N/A   Partly Cloudy
9:20 PM 60.8 °F 60.8 °F 100% 30.33 in 6.2 mi East 8.1 mph - N/A   Partly Cloudy
9:50 PM 60.8 °F 60.8 °F 100% 30.33 in 6.2 mi East 11.5 mph - N/A   Partly Cloudy
10:00 PM 61 °F 60 °F 96% 30.33 in 31 mi East 11.5 mph - -   Scattered Clouds